Lid_Strength_Index
-0 -0 1 3 10 11 14 12 9 10 9 6 6 7 8 7 9 12 2 1 0 0 -0 -1 -1 -1 -1 -1 -1 -1 -1 -1 -1 -1 -1 -1 -1 -1 -1 -2 -2 -2 -2 -1 -1 -1 -1 -1 -1
1 3 4 5 12 14 14 10 10 8 6 5 6 6 7 9 5 4 3 1 0 -0 -0 -0 -1 -1 -1 -1 -1 -1 -1 -1 -1 -1 -1 -1 -1 -1 -2 -2 -2 -2 -1 -1 -1 -1 -1 -1 -1
0 2 7 9 12 15 14 9 9 8 6 6 7 5 6 7 4 3 1 0 -0 0 -0 -0 -1 -1 -1 -1 -1 -1 -1 -1 -1 -1 -1 -2 -2 -2 -2 -1 -1 -1 -1 -1 -1 -1 -1 -1 -1
5 5 6 11 13 10 11 9 8 8 7 5 6 8 5 2 3 2 1 0 0 0 -0 -1 -1 -1 -1 -1 -1 -1 -1 -1 -2 -2 -1 -2 -1 -1 -2 -1 -1 -1 -1 -1 -1 -1 -1 -1 -1
6 7 11 11 12 10 9 7 7 9 8 7 6 8 7 3 1 1 1 0 1 0 -0 -0 -1 -1 -1 -1 -1 -1 -1 -2 -1 -1 -1 -1 -1 -1 -1 -1 -1 -1 -1 -1 -1 -1 -1 -1 -1
9 8 13 14 12 9 8 7 7 8 7 7 7 7 6 2 2 1 1 1 0 0 -0 -0 -1 -1 -1 -1 -1 -2 -2 -2 -1 -1 -1 -1 -1 -1 -1 -1 -1 -1 -1 -1 -1 -1 -1 -1 -1
11 11 12 11 11 10 8 6 8 7 8 7 5 8 6 3 2 2 2 1 0 0 0 -0 -0 -1 -1 -2 -2 -2 -2 -2 -1 -2 -2 -2 -2 -2 -2 -1 -1 -1 -1 -1 -1 -1 -1 -1 -1
9 11 12 10 11 11 7 7 6 6 7 4 4 8 8 4 2 2 1 1 1 1 1 0 0 -0 -0 -0 -2 -2 -2 -2 -2 -2 -2 -2 -2 -2 -2 -1 -1 -2 -2 -2 -2 -2 -2 -1 -1
9 12 12 11 11 10 6 8 6 4 6 5 4 5 3 2 2 2 2 2 1 1 1 1 0 0 0 -0 -1 -1 -1 -2 -2 -1 -2 -0 0 1 -0 -2 -2 -2 -2 -2 -2 -2 -2 -2 -2
11 13 11 8 8 8 7 7 7 7 7 7 6 4 2 2 2 3 3 3 3 2 2 1 1 0 -0 -1 -0 -0 -1 -1 1 1 1 1 0 -0 0 -1 -2 -2 -2 -2 -2 -2 -2 -1 -0
10 12 9 8 8 6 7 7 6 7 9 6 7 5 4 3 3 3 3 3 3 2 2 1 1 1 1 1 0 0 0 0 1 1 1 1 0 1 1 1 1 1 -1 1 1 1 1 1 1
12 9 8 8 7 7 7 6 7 7 7 5 4 4 4 4 4 4 4 3 2 2 1 1 1 1 2 1 2 2 2 1 0 1 1 2 2 2 2 2 1 1 2 3 3 3 2 3 2
10 9 8 8 8 8 6 7 8 7 5 4 4 4 4 4 4 3 3 2 2 3 2 1 0 1 1 2 2 2 2 2 1 1 0 1 1 2 3 3 3 2 3 3 3 2 1 2 2
8 8 8 8 7 8 8 8 7 7 6 5 4 5 4 4 4 3 3 3 3 3 1 1 1 1 1 1 2 1 1 0 0 0 2 2 2 2 2 2 2 3 4 3 3 2 3 3 3
6 10 8 8 9 8 7 10 9 6 5 6 5 5 4 4 3 4 3 3 3 3 2 1 1 0 1 1 1 1 2 2 2 1 2 2 2 2 2 2 2 2 1 1 1 2 3 3 2
9 10 12 9 7 7 7 13 8 6 6 7 6 5 5 4 4 3 3 3 2 3 4 3 3 3 4 3 1 1 2 3 3 2 3 2 2 2 2 2 2 1 1 1 1 1 2 2 2
11 13 11 10 8 8 10 12 8 6 6 7 6 6 5 5 5 4 4 4 4 4 4 4 4 3 4 3 3 3 2 3 3 3 3 2 1 1 2 2 1 1 1 1 1 2 2 2 2
12 12 12 11 9 8 11 11 8 7 7 7 6 6 6 6 5 4 4 4 4 4 4 4 4 4 4 4 4 4 4 3 3 4 3 2 2 2 3 3 3 2 2 2 2 3 2 3 2
9 11 11 10 7 10 9 10 9 7 7 7 7 6 6 6 5 5 4 4 4 4 4 5 5 5 4 4 5 5 5 4 4 2 2 2 2 2 3 3 3 3 2 1 1 3 4 4 2
9 10 11 8 7 8 9 11 9 8 8 7 7 7 6 7 7 6 5 5 5 5 5 5 5 5 5 4 5 4 3 3 3 3 3 3 3 2 3 2 2 3 1 2 3 3 4 3 2
10 11 11 9 8 8 9 13 11 8 7 7 6 6 7 8 8 7 6 6 5 5 5 5 5 5 5 4 4 4 5 4 4 4 4 3 3 2 2 1 1 1 2 2 1 2 2 4 3
11 8 9 9 10 14 10 16 13 10 9 8 7 7 7 8 7 7 7 6 6 5 5 5 5 5 4 4 5 6 6 6 6 6 5 5 3 3 1 1 1 1 1 2 1 3 4 5 5
9 7 9 10 11 12 12 14 12 10 12 10 8 7 6 7 7 7 7 6 5 5 5 5 5 4 4 5 5 6 6 6 5 5 5 4 3 2 2 1 1 1 2 2 3 3 4 4 5
7 8 10 10 12 16 12 13 14 14 12 10 8 7 6 7 7 6 6 5 5 5 5 4 4 4 4 5 5 5 6 6 5 6 5 5 4 2 1 1 2 2 2 3 4 2 4 4 5
9 12 15 16 16 16 11 13 14 11 9 8 8 7 6 6 6 6 6 6 5 5 5 4 5 5 5 6 5 5 5 5 6 6 5 5 4 3 2 2 1 3 4 3 4 4 4 5 5
10 10 14 18 18 15 11 14 13 9 7 7 6 6 6 6 6 6 6 6 6 5 5 5 5 5 5 5 5 5 5 5 6 5 5 5 4 3 1 1 2 3 4 3 4 4 5 6 5
10 12 10 13 12 14 14 13 10 8 8 8 7 7 7 6 6 6 6 5 5 5 5 5 5 5 5 5 5 5 5 5 6 5 4 4 4 2 2 2 2 2 3 4 4 5 4 4 5
10 8 13 13 17 18 15 15 15 10 9 8 8 8 7 6 5 6 6 5 5 5 5 5 5 5 5 4 5 5 5 5 5 5 5 6 5 5 4 4 3 3 4 3 4 3 5 5 5
11 11 12 11 13 17 18 16 9 9 8 9 8 7 7 6 6 6 5 5 5 5 5 5 5 5 5 5 5 5 5 5 5 6 6 5 6 6 5 5 3 4 5 5 5 6 5 5 5
8 10 10 15 15 14 16 16 7 8 7 7 7 7 6 5 5 5 6 5 6 5 5 5 5 5 5 4 5 5 5 5 6 5 5 5 5 6 6 5 5 6 6 7 7 6 5 6 6